www.pogodaiklimat.ru

Погода и климат >> Архив погоды >> Бангладеш >> Patuakhali


ПОГОДА в Patuakhali

  • Прогноз погоды в Patuakhali
  • Монитор погоды в Patuakhali
  • Климат города

АРХИВ ПОГОДЫ в Patuakhali

Время (UTC), дата Ветер
(напр.,м/с)
 
Видим.   Явления Облачность Т
(С)
Тd
(С)
f
(%)
Тe
(С)
Тes
(С)
Комфортность P
(гПа)
Po
(гПа)
Тmin
(С)
Tmax
(С)
R
(мм)
R24
(мм)
S
(см)
18 16.06 З 1 5000 м 10/6 500 м
[Sc diur, vesp As op]
+27.5 +26.0 92 +41 +41 опасность
перегрева
1001.1 1000.9
21 16.06 Ю 1 5000 м 10/6 500 м
[Sc diur, vesp As op]
+27.4 +26.0 92 +41 +41 опасность
перегрева
1000.9 1000.8
00 17.06 Ю 1 5000 м 9/6 500 м
[Sc diur, vesp Ac As]
+29.4 +28.0 92 +49 +49 опасность
перегрева
1000.6 1000.5
03 17.06 ЮЗ 1 5000 м 10/6 500 м
[Sc diur, vesp As op]
+30.7 +29.0 91 +54 +55 опасность
перегрева
1001.4 1001.3 +24.5
06 17.06 Ю 1 5000 м 9/6 500 м
[Sc diur, vesp As trans]
+32.3 +29.0 83 +56 +62 опасность
перегрева
1000.8 1000.7
09 17.06 ЮВ 1 5000 м 9/6 500 м
[Cb calv Ac As]
+32.8 +29.0 80 +56 +59 опасность
перегрева
999.6 999.4
12 17.06 Ю 1 5000 м 9/5 500 м
[Sc diur, vesp Ac As]
+31.4 +28.0 82 +52 +52 опасность
перегрева
998.8 998.6 +33.1
15 17.06 Ю 1 5000 м 9/6 500 м
[Sc diur, vesp As trans]
+30.1 +29.0 94 +53 +53 опасность
перегрева
1000.0 999.9
18 17.06 Ю 1 5000 м 10/6 500 м
[Sc diur, vesp As op]
+29.9 +29.0 95 +52 +52 опасность
перегрева
1000.6 1000.5
21 17.06 Ю 1 5000 м 8/6 540 м
[Sc diur, vesp As trans]
+29.4 +29.0 98 +51 +51 опасность
перегрева
1000.2 1000.1
00 18.06 Ю 1 5000 м 6/5 540 м
[Sc diur, vesp Ac trans]
+29.1 +29.0 99 +51 +51 опасность
перегрева
999.9 999.8
03 18.06 Ю 1 5000 м 6/4 540 м
[Sc diur, vesp As trans]
+31.9 +29.0 85 +55 +62 опасность
перегрева
1000.5 1000.3 +28.6
06 18.06 Ю 1 6000 м 8/5 540 м
[Sc diur, vesp As trans]
+34.3 +28.0 70 +55 +63 опасность
перегрева
1000.1 999.9
09 18.06 Ю 1 7000 м 5/5 540 м
[Sc diur, vesp]
+34.7 +29.0 72 +58 +66 опасность
перегрева
998.8 998.6
12 18.06 Ю 1 5000 м 6/5 540 м
[Sc diur, vesp As trans]
+32.3 +29.0 83 +56 +56 опасность
перегрева
997.9 997.7 +35.2
15 18.06 Ю 1 5000 м 6/5 540 м
[Sc diur, vesp As trans]
+30.6 +30.0 97 +57 +57 опасность
перегрева
999.5 999.3
18 18.06 ЮВ 1 5000 м 6/5 540 м
[Sc diur, vesp As trans]
+30.1 +29.0 94 +53 +53 опасность
перегрева
1000.3 1000.1
21 18.06 ЮВ 1 5000 м 6/5 540 м
[Sc diur, vesp As trans]
+29.7 +29.7 100 +54 +54 опасность
перегрева
1000.0 999.8
00 19.06 Ю 1 5000 м 6/5 540 м
[Sc diur, vesp As trans]
+29.4 +29.4 100 +53 +53 опасность
перегрева
999.7 999.5
03 19.06 Ю 1 6000 м 4/4 540 м
[Sc diur, vesp]
+33.0 +30.0 84 +60 +69 опасность
перегрева
1001.2 1001.0 +29.0
06 19.06 СЗ 4 4000 м гроза, ливневой дождь 10/8 210 м
[Cb cap As op]
+27.8 +24.0 80 +39 +39 очень
душно
1003.0 1002.9 8
09 19.06 ЮВ 1 4000 м гроза, ливневой дождь 10/8 480 м
[Cb cap As op]
+25.2 +24.0 93 +35 +35 очень
душно
1001.7 1001.5
12 19.06 Ю 1 5000 м {гроза, дождь} 10/6 500 м
[Sc diur, vesp As op]
+26.3 +25.0 93 +38 +38 очень
душно
998.7 998.5 +34.3 45
15 19.06 штиль 0 5000 м 9/6 500 м
[Sc diur, vesp As trans]
+26.7 +26.7 100 +41 +41 опасность
перегрева
1000.7 1000.5
18 19.06 штиль 0 5000 м 6/5 540 м
[Sc diur, vesp As trans]
+26.5 +26.5 100 +40 +40 очень
душно
1001.2 1001.0
21 19.06 штиль 0 5000 м 8/5 540 м
[Sc diur, vesp Ac As]
+27.0 +27.0 100 +42 +42 опасность
перегрева
1001.4 1001.2
00 20.06 штиль 0 5000 м 9/5 500 м
[Sc diur, vesp Ac As]
+27.4 +27.4 100 +44 +44 опасность
перегрева
1002.4 1002.2
03 20.06 ЮВ 1 5000 м 5/5 540 м
[Sc diur, vesp]
+32.3 +28.0 78 +53 +61 опасность
перегрева
1003.3 1003.2 +24.5
06 20.06 Ю 1 5000 м 9/6 500 м
[Sc diur, vesp As trans]
+33.7 +29.0 77 +58 +64 опасность
перегрева
1003.1 1002.9
12 20.06 Ю 1 5000 м 8/5 540 м
[Sc diur, vesp Ac lent Ci fib]
+30.9 +27.0 80 +49 +49 опасность
перегрева
1000.5 1000.4 +35.3
18 20.06 Ю 2 5000 м зарница 5/3 750 м
[Cb calv As trans]
+29.7 +28.0 91 +49 +49 опасность
перегрева
1003.2 1003.1
21 20.06 штиль 0 5000 м зарница 6/6 540 м
[Cb calv As trans]
+29.6 +29.0 97 +52 +52 опасность
перегрева
1002.9 1002.8
00 21.06 штиль 0 5000 м гроза без осадков 6/6 540 м
[Cb cap Ac As]
+29.4 +29.0 98 +51 +52 опасность
перегрева
1003.3 1003.2
03 21.06 штиль 0 5000 м {гроза, дождь} 10/8 500 м
[Sc diur, vesp As op]
+29.7 +25 +25 комфорт 1004.9 1004.8 +26.9
06 21.06 ЮВ 1 6000 м {гроза, дождь} 4/4 540 м
[Sc diur, vesp]
+30.7 +27.0 81 +48 +65 опасность
перегрева
1004.0 1003.9 0.8
09 21.06 ЮВ 1 6000 м 4/4 540 м
[Sc diur, vesp]
+32.9 +27.0 71 +51 +59 опасность
перегрева
1002.0 1001.8
12 21.06 Ю 1 5000 м 3/3 540 м
[Sc]
+30.9 +27.0 80 +49 +49 опасность
перегрева
1001.6 1001.5 +33.2
15 21.06 Ю 1 5000 м ясно +29.0 +27.0 89 +46 +46 опасность
перегрева
1003.1 1003.0
18 21.06 штиль 0 5000 м ясно +28.3 +27.0 93 +45 +45 опасность
перегрева
1003.2 1003.1
21 21.06 штиль 0 5000 м 8/5 540 м
[Sc diur, vesp Ac As]
+28.0 +27.0 94 +44 +44 опасность
перегрева
1003.1 1003.0
00 22.06 штиль 0 5000 м 9/5 500 м
[Sc diur, vesp Ac As Ci fib]
+27.7 +27.7 100 +45 +45 опасность
перегрева
1003.0 1002.9
03 22.06 штиль 0 6000 м 9/5 500 м
[Sc diur, vesp Ac As]
+30.6 +28.0 86 +51 +54 опасность
перегрева
1004.3 1004.2 +27.4
06 22.06 ЮВ 1 6000 м 6/5 540 м
[Sc diur, vesp As trans]
+32.7 +27.0 72 +51 +62 опасность
перегрева
1003.1 1002.9
09 22.06 Ю 1 6000 м 8/6 540 м
[Sc diur, vesp Ac As Ci fib]
+31.8 +27.0 76 +50 +54 опасность
перегрева
1001.2 1001.1
12 22.06 Ю 1 5000 м 8/6 540 м
[Sc diur, vesp As trans Ci fib]
+31.0 +26.0 75 +46 +47 опасность
перегрева
1000.7 1000.6 +33.8
15 22.06 Ю 1 5000 м 8/3 750 м
[Cu hum Ac As]
+29.3 +27.0 87 +46 +46 опасность
перегрева
1002.7 1002.6
18 22.06 Ю 1 5000 м в посл. час дождь 6/4 540 м
[Sc diur, vesp As trans]
+28.8 +28.0 95 +47 +47 опасность
перегрева
1003.0 1002.9 0.1
21 22.06 Ю 1 5000 м 10/6 500 м
[Sc diur, vesp As op]
+28.2 +27.0 93 +44 +44 опасность
перегрева
1002.9 1002.8
00 23.06 Ю 1 5000 м гроза без осадков {дождь} 10/8 480 м
[Cb cap As op]
+27.3 +26.0 93 +41 +41 опасность
перегрева
1002.6 1002.4
03 23.06 ЮЗ 1 4000 м гроза, ливневой дождь 10/8 480 м
[Cb cap As op]
+25.9 +25.9 100 +38 +39 очень
душно
1004.0 1003.8 +25.7
06 23.06 СЗ 1 4000 м слабый дождь {гроза} 10/8 480 м
[Sc diur, vesp As op]
+26.7 +26.7 100 +41 +42 опасность
перегрева
1003.7 1003.5 59
09 23.06 Ю 1 5000 м в посл. час дождь 8/6 500 м
[Sc diur, vesp As trans]
+28.3 +26.0 87 +42 +47 опасность
перегрева
1001.9 1001.7
12 23.06 Ю 1 5000 м {дождь} 8/5 540 м
[Sc diur, vesp Ac As]
+29.3 +27.0 87 +46 +46 опасность
перегрева
1001.2 1001.0 +31.0 7
15 23.06 штиль 0 5000 м 9/8 500 м
[Sc diur, vesp Ac As]
+28.0 +27.0 94 +44 +44 опасность
перегрева
1002.4 1002.2

 

Местоположение метеостанции Patuakhali (Бангладеш): широта 22.33 долгота 90.33 высота над уровнем моря 3 м.

В архиве по умолчанию представлена погода в Patuakhali за последнюю неделю. Архивные данные за месяц целиком и за предыдущие месяцы, начиная с января 2011 года, Вы можете получить, выбрав интересующий диапазон дат из раскрывающегося списка и нажав кнопку "Ввод!".


*Определитесь, кто Вы:
робот инопланетянин человек

Внимание! Время в таблицах - всемирное. Для получения местного времени необходимо прибавить поправку, которая в Patuakhali равна 6.5 ч.

Смотрите также архив погоды в соседних городах и на ближайших метеорологических станциях:

Погода в Khepupara (Бангладеш) (40 км)
Погода в Barisal (Бангладеш) (47 км)
Погода в Bhola (Бангладеш) (51 км)
Погода в Hatia (Бангладеш) (80 км)
Погода в Mongla (Бангладеш) (90 км)
Погода в Gopalganj Sadar (Бангладеш) (92 км)
Погода в Madaripur (Бангладеш) (95 км)
Погода в Khulna (Бангладеш) (96 км)
Погода в Maijdicourt (Бангладеш) (99 км)
Погода в Chandpur (Бангладеш) (111 км)

Пояснения к столбцам:

Ветер - указаны скорость ветра в м/с - средняя за 10 мин, порывы в срок и между сроками (в фигурных скобках) и направление, откуда дует ветер: С - северный, СВ - северо-восточный, В - восточный, ЮВ - юго-восточный, Ю - южный, ЮЗ - юго-западный, З - западный, СЗ - северо-западный.
Видимость - горизонтальная дальность видимости в метрах или километрах. При видимости от 1 до 10 км при отсутствии осадков обычно наблюдается дымка, при ухудшении видимости до 1 км и менее - туман. В сухую погоду видимость может ухудшаться дымом, пылью или мглою.
Явления - указаны атмосферные явления, наблюдавшиеся в срок или в последний час перед сроком; фигурными скобками обозначены явления, наблюдавшиеся между сроками (за 1-3 часа до срока); квадратными скобками обозначены град или гололедные отложения с указанием их диаметра в мм.
Облачность - указаны через наклонную черту общая и нижняя облачность в баллах и высота нижней границы облаков в метрах; квадратными скобками обозначены формы облаков: Ci - перистые, Cs - перисто-слоистые, Cc - перисто-кучевые, Ac - высококучевые, As - высокослоистые, Sc - слоисто-кучевые, Ns - слоисто-дождевые, Cu - кучевые, Cb - кучево-дождевые. Подробнее классификацию облаков см. в Атласе облаков (PDF).
T - Температура воздуха - температура, измеренная на высоте 2 м над землей.
Td - Температура точки росы - температура, при понижении до которой содержащийся в воздухе водяной пар достигнет насыщения.
f - Относительная влажность воздуха - влажноcть воздуха, измеренная на высоте 2 м над землей.
Te - Эффективная температура - температура, которую ощущает одетый по сезону человек в тени. Характеристика душности погоды. При расчете учитывается влияние влажности воздуха и скорости ветра на теплоощущения человека.
Tes - Эффективная температура на солнце - температура, которую ощущает человек, с поправкой на солнечный нагрев. Характеристика знойности погоды. Зависит от высоты солнца над горизонтом, облачности и скорости ветра. Ночью, в пасмурную погоду, а также при ветре 12 м/с и более поправка равна нулю.
P - Атмосферное давление - приведенное к уровню моря атмосферное давление.
Po - Атмосферное давление - измеренное на уровне метеостанции атмосферное давление.
Tmin - Минимальная температура - минимум температуры воздуха на высоте 2 м над землей.
Tmax - Максимальная температура - максимум температуры воздуха на высоте 2 м над землей.
R - Количество осадков - Количество выпавших осадков за период времени, мм. При наведении курсора мыши на число - период времени, за который выпало указанное количество осадков.
R24 - Количество осадков - Количество выпавших осадков за 24 часа, мм.
S - Снежный покров - Высота снежного покрова, см. При наведении курсора мыши на число - состояние снежного покрова и степень покрытия местности в баллах.